• Join FlightAware (Why Join?)
  • Login
  • US Flag 
02:22AM EST


 

Airport Tracker/Info


-or-


 

Live Flight TrackerFlight Track Log ✈ WWI24 ✈ 05-May-2013 ✈ KSDL - KLAS

Flight Track Log - Related Links

Times and Time Zones

All times are in EDT time to prevent confusion due to time zone crossing. See the WWI24 flight status page for this flight to view local times or setup timezone preferences in your user account.

Time Position Orientation Groundspeed Altitude Reporting Facility
EDT Latitude Longitude Course Direction KTS MPH feet Rate Location/Type
06:31PM 33.6167 -111.9333 287° West 154 177 2,800  Level Phoenix TRACON
06:32PM 33.6250 -111.9658 287° West 206 237 3,600 1,846 Climbing Albuquerque Center
06:33PM 33.6547 -112.0400 296° West 241 277 6,000 2,613 Climbing Albuquerque Center
06:34PM 33.6947 -112.1281 299° West 295 339 9,000 2,049 Climbing Albuquerque Center
06:35PM 33.7775 -112.1792 333° Northwest 326 375 10,200 1,463 Climbing Albuquerque Center
06:36PM 33.8653 -112.2336 333° Northwest 351 404 12,000 2,081 Climbing Albuquerque Center
06:37PM 33.9572 -112.2906 333° Northwest 367 422 14,500 2,390 Climbing Albuquerque Center
06:38PM 34.0533 -112.3550 331° Northwest 389 448 16,900 2,732 Climbing Albuquerque Center
06:39PM 34.1539 -112.4606 319° Northwest 399 459 20,100 2,537 Climbing Albuquerque Center
06:40PM 34.2317 -112.5619 313° West 409 471 22,100 2,390 Climbing Albuquerque Center
06:41PM 34.2892 -112.6769 301° West 401 461 25,000 2,081 Climbing Albuquerque Center
06:42PM 34.3439 -112.7953 299° West 399 459 26,400 1,463 Climbing Albuquerque Center
06:43PM 34.4031 -112.9153 301° West 410 472 28,000 522 Climbing Albuquerque Center
06:45PM 34.5803 -113.1186 317° Northwest 438 504 28,000 32 Level Albuquerque Center
06:46PM 34.6769 -113.2328 316° Northwest 476 548 28,100  Climbing Albuquerque Center
06:47PM 34.7708 -113.3456 315° West 476 548 28,000 -49 Descending Albuquerque Center
06:48PM 34.8808 -113.4750 316° Northwest 463 533 28,000  Level Albuquerque Center
06:49PM 34.9725 -113.5878 315° West 465 535 28,000 -381 Level Los Angeles Center
06:50PM 35.0664 -113.6997 316° Northwest 468 539 27,200 -1,872 Descending Los Angeles Center
06:51PM 35.1600 -113.8131 315° West 471 542 24,100 -3,504 Descending Los Angeles Center
06:52PM 35.2667 -113.9389 316° Northwest 454 522 19,900 -3,823 Descending Los Angeles Center
06:53PM 35.3636 -114.0308 322° Northwest 444 511 16,200 -2,758 Descending Los Angeles Center
06:54PM 35.4539 -114.1144 323° Northwest 402 463 14,200 -919 Descending Los Angeles Center
06:55PM 35.5375 -114.1933 322° Northwest 382 440 14,300 53 Climbing Los Angeles Center
06:56PM 35.6214 -114.2686 324° Northwest 391 450 14,300 -726 Level Los Angeles Center
06:57PM 35.6975 -114.3422 322° Northwest 350 403 12,800 -1,066 Descending Los Angeles Center
06:59PM 35.8233 -114.4150 335° Northwest 334 384 11,600 -1,097 Descending Los Angeles Center
07:01PM 35.9672 -114.4617 345° North 324 373 9,400 -1,261 Descending Los Angeles Center
07:02PM 36.0719 -114.4825 351° North 307 353 7,900 -1,113 Descending Los Angeles Center
07:03PM 36.1375 -114.4906 354° North 311 358 7,100 -462 Descending Los Angeles Center
07:04PM 36.1933 -114.5858 306° West 300 345 7,000 -48 Descending Los Angeles Center
07:05PM 36.1892 -114.6803 267° West 287 330 7,000  Level Los Angeles Center
07:06PM 36.1692 -114.7731 255° West 281 323 7,000  Level Los Angeles Center
07:06PM 36.1664 -114.8000 263° West 273 314 7,000  Level Los Angeles Center
07:07PM 36.1497 -114.8647 252° West 277 319 7,000 -466 Level Los Angeles Center
07:08PM 36.1319 -114.9581 257° West 267 307 6,200 -615 Descending Los Angeles Center
07:09PM 36.1367 -115.0392 274° West 214 246 5,800 -1,078 Descending Los Angeles Center
07:10PM 36.1364 -115.1083 270° West 173 199 3,900 -1,574 Descending Los Angeles Center
07:11PM 36.1208 -115.1456 243° Southwest 159 183 2,600 -1,418 Descending Los Angeles Center
07:13PM 36.0801 -115.1523 251° West  Level Estimated
07:20PM 36.0801 -115.1523 251° West  Level Estimated